Find Starlink 30841

NORAD ID: 58208 Int'l Des: 2023-170 Owner: SPXS Country: US Constellation: starlink operational
LEOCIRCULAR

Live-Position

3D-Globus wird geladen...

Über Starlink 30841

Beschreibung wird geladen...

Nächste Überflüge

Passes for default location (London). Set your location on the main map for personalized predictions.

Höhenverlauf

Loading altitude history...

Zweizeiliger Elementsatz

1 58208U 23170C 26120.78299336 .00001699 00000-0 71264-4 0 9993
2 58208 43.0075 260.2584 0002233 284.3386 75.7218 15.27575984138268
Epoch: 30. Apr. 2026 • Age: 21 hours

Aktueller Status

Höhe 485.6 km
Geschwindigkeit 7.63 km/s
Subsatellitenpunkt 33.16°N, 64.6°W
Startdatum 4. Nov. 2023
Alter 2.4 years
Typ internet

Technische Details

Klassifizierung Payload
Masse 730.00 kg
Trockenmasse 700.00 kg
Gesamtmasse 730.00 kg
Länge 0.30 m
Durchmesser 4.10 m
Spannweite 29.00 m
Form Box + pan
Hersteller SPXS
Bus-Typ Starlink V2M
Phasenstatus In Orbit
Besitzer/Staat SPXS/US

Most Searched